PROGRESS-MS 08 (43211 NORAD) Tracking and Keplerian Element Data

This shows tracking and keplerian element data for the satellite.

Feedback or suggestion? Click here.




ElementValue
Catalog43211
NamePROGRESS-MS 08
Epoch Orbit3073
Epoch Day241.87828412
Epoch Year2018
RAAN10.9156
Inclination51.6425
Eccentricity0.0040875
Argument of Perigee270.9965
Mean Anonmoly232.0473
Mean Motion15.64846262
Decay Rate0.00010714
L11 43211U 18019A 18241.87828412 .00010714 00000-0 10861-3 0 9998
L22 43211 51.6425 10.9156 0040875 270.9965 232.0473 15.64846262 30738



Live tracking and technical data element details for PROGRESS-MS 08 (NORAD 43211). PROGRESS-MS 08 can be tracked NOW for your location showing map with azimuth and elevation plus other details from your city location.







IsCatalogInMostPopularTable: catalog: 43211, numindb: 776
Update: records affected: 1



GetName: 43211 PROGRESS-MS 08

Hit Count: updated at: Fri, 19 Apr 2024 11:27:15 GMT